Change the Weather History Date:

Wednesday, September 12, 2012

  Actual Average Record
Temperature  
Mean Temperature 83 °F 82 °F  
Max Temperature 90 °F 89 °F 94 °F (1962)
Min Temperature 75 °F 75 °F 66 °F (1956)
Degree Days  
Heating Degree Days 0 0  
Month to date heating degree days 0 0  
Since 1 July heating degree days 0 0  
Cooling Degree Days 18 17  
Month to date cooling degree days 213 212  
Year to date cooling degree days 3133 2727  
Growing Degree Days 32 (Base 50)    
Moisture  
Dew Point 67 °F    
Average Humidity 64    
Maximum Humidity 79    
Minimum Humidity 48    
Precipitation  
Precipitation T in 0.24 in 3.73 in (1903)
Month to date precipitation 4.25 2.93  
Year to date precipitation 49.21 36.65  
Sea Level Pressure  
Sea Level Pressure 30.10 in    
Wind  
Wind Speed 7 mph (NE)    
Max Wind Speed 14 mph    
Max Gust Speed 26 mph    
Visibility 10 miles    
Events      
T = Trace of Precipitation, MM = Missing Value Source: NWS Daily Summary

Daily Weather History Graph

Daily Weather History Graph

Search for Another Location

Airport or City:

Trip Planner

Search our weather history database for the weather conditions in past years. The results will help you decide how hot, cold, wet, or windy it might be!

Date:

Astronomy

Sep. 12, 2012 Rise Set
Actual Time 7:14 AM EDT 7:37 PM EDT
Civil Twilight 6:50 AM EDT 8:01 PM EDT
Nautical Twilight 6:23 AM EDT 8:28 PM EDT
Astronomical Twilight 5:55 AM EDT 8:56 PM EDT
Moon 3:45 AM EDT (9/12) 5:12 PM EDT (9/12)
Length of Visible Light 13h 10m
Length of Day
12h 23m
Waning Crescent, 14% of the Moon is Illuminated
Sep 12
Waning Crescent
Sep 15
New
Sep 22
First Quarter
Sep 29
Full
Oct 8
Last Quarter

Hourly Weather History & Observations

Time (EDT) Temp. Heat Index Dew Point Humidity Pressure Visibility Wind Dir Wind Speed Gust Speed Precip Events Conditions
12:53 AM 77.0 °F - 64.9 °F 66% 30.12 in 10.0 mi ENE 5.8 mph - N/A   Partly Cloudy
1:53 AM 75.9 °F - 64.9 °F 69% 30.11 in 10.0 mi NE 6.9 mph - N/A   Clear
2:53 AM 75.0 °F - 64.9 °F 71% 30.10 in 10.0 mi NE 6.9 mph - N/A   Partly Cloudy
3:53 AM 75.0 °F - 64.9 °F 71% 30.08 in 10.0 mi NE 4.6 mph - N/A   Partly Cloudy
4:53 AM 75.0 °F - 66.0 °F 73% 30.08 in 10.0 mi Variable 5.8 mph - N/A   Scattered Clouds
5:53 AM 75.0 °F - 66.0 °F 73% 30.09 in 10.0 mi NE 5.8 mph - N/A   Mostly Cloudy
6:53 AM 75.0 °F - 66.9 °F 76% 30.10 in 10.0 mi NE 8.1 mph - N/A   Scattered Clouds
7:53 AM 75.9 °F - 68.0 °F 76% 30.12 in 10.0 mi NE 5.8 mph - N/A   Scattered Clouds
8:53 AM 78.1 °F - 69.1 °F 74% 30.13 in 10.0 mi NE 4.6 mph - N/A   Scattered Clouds
9:53 AM 81.0 °F 83.8 °F 68.0 °F 65% 30.13 in 10.0 mi ENE 9.2 mph - N/A   Partly Cloudy
10:53 AM 84.0 °F 87.0 °F 68.0 °F 58% 30.14 in 10.0 mi NE 4.6 mph - N/A   Partly Cloudy
11:53 AM 86.0 °F 87.6 °F 64.9 °F 49% 30.14 in 10.0 mi ENE 8.1 mph - N/A   Partly Cloudy
12:53 PM 88.0 °F 91.4 °F 68.0 °F 51% 30.12 in 10.0 mi NE 8.1 mph 16.1 mph N/A   Scattered Clouds
1:53 PM 89.1 °F 93.7 °F 69.1 °F 52% 30.10 in 10.0 mi ENE 5.8 mph - N/A   Scattered Clouds
2:53 PM 84.9 °F 89.4 °F 70.0 °F 61% 30.09 in 10.0 mi ENE 10.4 mph 18.4 mph 0.00 in   Mostly Cloudy
3:53 PM 88.0 °F 90.7 °F 66.9 °F 49% 30.07 in 10.0 mi ENE 9.2 mph 18.4 mph N/A   Mostly Cloudy
4:53 PM 86.0 °F 89.4 °F 68.0 °F 55% 30.06 in 10.0 mi ENE 9.2 mph 19.6 mph N/A   Overcast
5:53 PM 84.0 °F 86.5 °F 66.9 °F 56% 30.07 in 10.0 mi ENE 12.7 mph 20.7 mph N/A   Overcast
6:53 PM 82.9 °F 85.8 °F 68.0 °F 60% 30.07 in 10.0 mi Variable 4.6 mph - 0.00 in   Mostly Cloudy
7:53 PM 82.0 °F 85.5 °F 69.1 °F 65% 30.07 in 10.0 mi ENE 5.8 mph - N/A   Mostly Cloudy
8:53 PM 81.0 °F 84.1 °F 69.1 °F 67% 30.08 in 10.0 mi ENE 5.8 mph - N/A   Scattered Clouds
9:53 PM 80.1 °F 82.7 °F 68.0 °F 67% 30.09 in 10.0 mi ENE 5.8 mph - N/A   Scattered Clouds
10:53 PM 79.0 °F - 69.1 °F 72% 30.10 in 10.0 mi NE 4.6 mph - N/A   Partly Cloudy
11:53 PM 78.1 °F - 69.1 °F 74% 30.10 in 10.0 mi ENE 6.9 mph - N/A   Partly Cloudy